Weather History for Vidsel, Sweden

Change the Weather History Date:

Sunday, December 30, 2012

  Actual Average Record
Temperature  
Mean Temperature 27 °F -  
Max Temperature 35 °F - - ()
Min Temperature 19 °F - - ()
Degree Days  
Heating Degree Days 38    
Moisture  
Dew Point 31 °F    
Average Humidity 97    
Maximum Humidity 100    
Minimum Humidity 93    
Precipitation  
Precipitation 0.00 in - - ()
Sea Level Pressure  
Sea Level Pressure 29.25 in    
Wind  
Wind Speed 4 mph ()    
Max Wind Speed 9 mph    
Max Gust Speed -    
Visibility 4.6 miles    
Events Rain , Snow    
T = Trace of Precipitation, MM = Missing Value Source: Averaged Metar Reports

Daily Weather History Graph

Daily Weather History Graph

Search for Another Location

Airport:

Trip Planner

Search our weather history database for the weather conditions in past years. The results will help you decide how hot, cold, wet, or windy it might be!

Date:

Astronomy

Dec. 30, 2012 Rise Set
Actual Time 10:06 AM CET 1:17 PM CET
Civil Twilight 8:32 AM CET 2:52 PM CET
Nautical Twilight 7:16 AM CET 4:07 PM CET
Astronomical Twilight 6:12 AM CET 5:12 PM CET
Moon 5:02 PM CET (12/30) 9:40 AM CET (12/30)
Length of Visible Light 6h 20m
Length of Day
3h 10m
Waning Gibbous, 96% of the Moon is Illuminated
Dec 30
Waning Gibbous
Jan 5
Last Quarter
Jan 11
New
Jan 19
First Quarter
Jan 27
Full

Hourly Weather History & Observations

Time (CET) Temp. Windchill Dew Point Humidity Pressure Visibility Wind Dir Wind Speed Gust Speed Precip Events Conditions
12:20 AM - - 32.0 °F N/A% 29.53 in 0.6 mi ESE 1.2 mph - N/A   Unknown
12:50 AM 19.4 °F - 19.4 °F 100% 29.53 in 0.8 mi Calm Calm - N/A Snow Light Snow
1:20 AM 21.2 °F - 19.4 °F 93% 29.50 in 0.7 mi Calm Calm - N/A Snow Light Snow
1:50 AM - - 32.0 °F N/A% 29.47 in 0.6 mi Calm Calm - N/A   Unknown
2:20 AM - - 32.0 °F N/A% 29.44 in 0.6 mi Calm Calm - N/A   Unknown
2:50 AM - - 32.0 °F N/A% 29.44 in 0.9 mi Variable 1.2 mph - N/A   Unknown
3:20 AM 26.6 °F - 24.8 °F 93% 29.42 in 1.2 mi Variable 1.2 mph - N/A   Light Ice Pellets
3:50 AM 26.6 °F 22.6 °F 26.6 °F 100% 29.39 in - SE 3.5 mph - N/A   Light Ice Pellets
4:20 AM 28.4 °F 22.2 °F 26.6 °F 93% 29.36 in 6.2 mi SE 5.8 mph - N/A Snow Light Snow Grains
4:50 AM 28.4 °F 22.2 °F 28.4 °F 100% 29.36 in - SE 5.8 mph - N/A Snow Light Snow
5:20 AM 28.4 °F 21.2 °F 28.4 °F 100% 29.33 in 3.7 mi SE 6.9 mph - N/A Snow Light Snow
5:50 AM 28.4 °F 22.2 °F 28.4 °F 100% 29.33 in 2.5 mi SE 5.8 mph - N/A Snow Light Snow Grains
6:20 AM 28.4 °F 21.2 °F 28.4 °F 100% 29.30 in 6.2 mi SE 6.9 mph - N/A Snow Light Snow Showers
6:50 AM 30.2 °F 22.6 °F 28.4 °F 93% 29.27 in 6.2 mi SE 8.1 mph - N/A   Overcast
7:20 AM 30.2 °F 23.4 °F 30.2 °F 100% 29.27 in 6.2 mi SE 6.9 mph - N/A   Light Freezing Drizzle
7:50 AM 30.2 °F 26.7 °F 30.2 °F 100% 29.27 in 6.2 mi ESE 3.5 mph - N/A   Light Freezing Drizzle
8:20 AM 32.0 °F 26.4 °F 32.0 °F 100% 29.27 in 6.2 mi ESE 5.8 mph - N/A   Overcast
8:50 AM 32.0 °F 27.5 °F 32.0 °F 100% 29.24 in 5.0 mi SE 4.6 mph - N/A   Overcast
9:20 AM 32.0 °F 24.8 °F 32.0 °F 100% 29.24 in 3.1 mi SE 8.1 mph - N/A   Overcast
9:50 AM 32.0 °F 25.6 °F 32.0 °F 100% 29.24 in 3.7 mi ESE 6.9 mph - N/A   Overcast
10:20 AM 32.0 °F 24.2 °F 32.0 °F 100% 29.21 in 3.1 mi ESE 9.2 mph - N/A   Overcast
10:50 AM 32.0 °F 24.2 °F 32.0 °F 100% 29.21 in 3.1 mi ESE 9.2 mph - N/A   Overcast
11:20 AM 32.0 °F 24.8 °F 32.0 °F 100% 29.21 in - SE 8.1 mph - N/A   Overcast
11:50 AM 32.0 °F 25.6 °F 32.0 °F 100% 29.21 in 3.1 mi ESE 6.9 mph - N/A   Overcast
12:20 PM 33.8 °F 27.0 °F 32.0 °F 93% 29.18 in 3.1 mi ESE 8.1 mph - N/A Rain Light Rain
12:50 PM 32.0 °F 24.8 °F 32.0 °F 100% 29.18 in - ESE 8.1 mph - N/A Snow Light Snow
1:20 PM 32.0 °F 24.8 °F 32.0 °F 100% 29.18 in 1.6 mi East 8.1 mph - N/A Rain , Snow Light Freezing Rain
1:50 PM 32.0 °F 24.2 °F 32.0 °F 100% 29.15 in 4.3 mi ESE 9.2 mph - N/A Snow Light Snow
2:20 PM 33.8 °F 27.0 °F 32.0 °F 93% 29.15 in 5.0 mi ESE 8.1 mph - N/A Rain , Snow Light Rain
2:50 PM 33.8 °F 27.0 °F 32.0 °F 93% 29.15 in 6.2 mi ESE 8.1 mph - N/A   Drizzle
3:20 PM 33.8 °F 27.7 °F 33.8 °F 100% 29.15 in 6.2 mi ESE 6.9 mph - N/A   Overcast
3:50 PM 33.8 °F 27.7 °F 32.0 °F 93% 29.12 in 6.2 mi ESE 6.9 mph - N/A   Overcast
4:20 PM 33.8 °F 28.6 °F 33.8 °F 100% 29.15 in 6.2 mi SE 5.8 mph - N/A   Overcast
4:50 PM 33.8 °F 28.6 °F 33.8 °F 100% 29.15 in 6.2 mi SE 5.8 mph - N/A   Overcast
5:20 PM 33.8 °F 28.6 °F 33.8 °F 100% 29.15 in 6.2 mi SSE 5.8 mph - N/A   Overcast
5:50 PM 33.8 °F 29.6 °F 33.8 °F 100% 29.15 in 6.2 mi SSE 4.6 mph - N/A   Overcast
6:20 PM 35.6 °F 30.7 °F 33.8 °F 93% 29.15 in 6.2 mi South 5.8 mph - N/A   Overcast
6:50 PM 35.6 °F 31.7 °F 33.8 °F 93% 29.15 in 6.2 mi SSE 4.6 mph - N/A Rain Light Rain
7:20 PM 35.6 °F - 33.8 °F 93% 29.15 in 6.2 mi Variable 2.3 mph - N/A Rain Light Rain Showers
7:50 PM 33.8 °F - 33.8 °F 100% 29.15 in 6.2 mi Variable 1.2 mph - N/A   Overcast
8:20 PM 35.6 °F 32.8 °F 33.8 °F 93% 29.18 in 6.2 mi West 3.5 mph - N/A   Overcast
8:50 PM 35.6 °F - 33.8 °F 93% 29.18 in 6.2 mi Variable 1.2 mph - N/A   Mostly Cloudy
9:20 PM 32.0 °F - 32.0 °F 100% 29.18 in 6.2 mi NE 2.3 mph - N/A   Scattered Clouds
9:50 PM 33.8 °F - 32.0 °F 93% 29.18 in 6.2 mi Variable 2.3 mph - N/A   Overcast
10:20 PM 33.8 °F 30.8 °F 32.0 °F 93% 29.18 in 6.2 mi Variable 3.5 mph - N/A   Mostly Cloudy
10:50 PM 33.8 °F 27.7 °F 32.0 °F 93% 29.18 in 6.2 mi SW 6.9 mph - N/A   Partly Cloudy
11:20 PM 33.8 °F 28.6 °F 32.0 °F 93% 29.18 in 6.2 mi WSW 5.8 mph - N/A   Mostly Cloudy
11:50 PM 32.0 °F 26.4 °F 32.0 °F 100% 29.18 in 6.2 mi South 5.8 mph - N/A   Scattered Clouds